Hourly Data Report for March 21, 2020

All times are specified in Local Standard Time (LST). Add 1 hour to adjust for Daylight Saving Time where and when it is observed.

OTTAWA INTL A
ONTARIO
Current Station Operator: NAVCAN

45°19'00.000" N
75°40'00.000" W
114.90 m
6106001
71628
YOW

Download Data

Hourly Data (March 2020)
Hourly Data Report for March 21, 2020
TIME Temp Definition
°C
Dew Point Definition
°C
Rel Hum Definition
%
Wind Dir Definition
10's deg

Wind Spd Definition
km/h
Visibility Definition
km
Stn Press Definition
kPa
Hmdx Definition


Wind Chill Definition


Weather Definition


00:00 -4.5 -10.0 66 31 32 24.1 100.96   -13 LegendNANA
01:00 -6.1 -12.8 59 32 38 24.1 101.10   -15 Clear
02:00 -7.3 -14.7 56 32 29 24.1 101.28   -16 LegendNANA
03:00 -8.3 -15.5 56 33 30 24.1 101.35   -17 LegendNANA
04:00 -9.1 -16.3 56 33 21 24.1 101.48   -17 Clear
05:00 -10.2 -17.2 57 32 37 24.1 101.59   -21 LegendNANA
06:00 -10.9 -17.2 60 33 25 24.1 101.74   -20 LegendNANA
07:00 -10.8 -17.2 60 33 26 24.1 101.83   -20 Clear
08:00 -10.3 -17.2 57 31 19 24.1 101.97   -18 LegendNANA
09:00 -9.4 -17.1 54 32 16 24.1 102.06   -16 LegendNANA
10:00 -8.3 -17.3 49 34 19 24.1 102.11   -16 Clear
11:00 -6.9 -16.2 48 32 16 24.1 102.12   -13 LegendNANA
12:00 -6.4 -16.2 46 31 13 24.1 102.10   -12 LegendNANA
13:00 -5.7 -16.0 45 31 9 24.1 102.05   -10 Mainly Clear
14:00 -5.3 -16.0 43 27 7 24.1 102.00   -9 LegendNANA
15:00 -4.0 -14.1 46 32 17 24.1 101.96   -10 LegendNANA
16:00 -3.8 -14.7 43 31 11 24.1 101.97   -8 Mostly Cloudy
17:00 -4.1 -14.9 43 27 16 24.1 102.03   -10 LegendNANA
18:00 -4.6 -14.7 46 27 13 24.1 102.09   -10 LegendNANA
19:00 -5.2 -13.8 51 27 12 24.1 102.14   -10 Mostly Cloudy
20:00 -5.6 -13.7 53 28 8 24.1 102.17   -9 LegendNANA
21:00 -6.3 -13.7 56 31 9 24.1 102.23   -11 LegendNANA
22:00 -5.7 -14.6 50 36 11 24.1 102.29   -10 Clear
23:00 -6.4 -14.6 52 1 12 24.1 102.34   -12 LegendNANA

Notes on Data Quality.

Legend

  • E = Estimated
  • M = Missing
  • NA = Not Available*
  • [empty] = Indicates an unobserved value
Date modified: